| time (UTC) | temp F | wind direction | speed MPH | gust MPH | rain 1hr in | rain 24hr in | rain mn in | humidity % | barometer mb |
| 20260507221101 | 69 | 40 | 3.0 | 8.0 | 0.00 | 0.02 | 0.02 | 62 | 1012.8 |
| 20260507220557 | 68 | 42 | 3.0 | 12.0 | 0.00 | 0.02 | 0.02 | 62 | 1013.2 |
| 20260507220057 | 68 | 45 | 4.0 | 12.0 | 0.00 | 0.02 | 0.02 | 62 | 1013.1 |
| 20260507215557 | 68 | 12 | 4.0 | 14.0 | 0.00 | 0.02 | 0.02 | 63 | 1013.3 |
| 20260507215057 | 68 | 325 | 4.0 | 14.0 | 0.00 | 0.02 | 0.02 | 64 | 1013.3 |
| 20260507214556 | 68 | 349 | 4.0 | 14.0 | 0.00 | 0.02 | 0.02 | 63 | 1013.2 |
| 20260507214056 | 69 | 360 | 4.0 | 11.0 | 0.00 | 0.02 | 0.02 | 63 | 1013.2 |
| 20260507213556 | 69 | 11 | 4.0 | 10.0 | 0.00 | 0.02 | 0.02 | 63 | 1013.3 |
| 20260507213056 | 69 | 37 | 4.0 | 12.0 | 0.00 | 0.02 | 0.02 | 63 | 1013.3 |
| 20260507212556 | 69 | 350 | 5.0 | 12.0 | 0.00 | 0.02 | 0.02 | 63 | 1013.3 |
| 20260507212056 | 69 | 67 | 3.0 | 11.0 | 0.00 | 0.02 | 0.02 | 63 | 1013.3 |
| 20260507211556 | 70 | 68 | 6.0 | 11.0 | 0.00 | 0.02 | 0.02 | 63 | 1013.4 |
| 20260507211053 | 69 | 16 | 3.0 | 12.0 | 0.00 | 0.02 | 0.02 | 64 | 1013.2 |
| 20260507210552 | 69 | 320 | 4.0 | 12.0 | 0.00 | 0.02 | 0.02 | 66 | 1013.0 |
| 20260507210100 | 68 | 344 | 4.0 | 12.0 | 0.00 | 0.02 | 0.02 | 65 | 1013.0 |
| 20260507205552 | 69 | 55 | 4.0 | 12.0 | 0.00 | 0.02 | 0.02 | 65 | 1013.0 |
| 20260507205053 | 69 | 50 | 7.0 | 12.0 | 0.00 | 0.02 | 0.02 | 65 | 1013.1 |
| 20260507204551 | 69 | 336 | 4.0 | 13.0 | 0.00 | 0.02 | 0.02 | 66 | 1013.2 |
| 20260507204052 | 69 | 48 | 6.0 | 13.0 | 0.00 | 0.02 | 0.02 | 67 | 1013.2 |
| 20260507203550 | 69 | 320 | 5.0 | 11.0 | 0.00 | 0.02 | 0.02 | 68 | 1013.3 |
| 20260507203050 | 68 | 69 | 4.0 | 11.0 | 0.00 | 0.02 | 0.02 | 68 | 1013.1 |
| 20260507202548 | 68 | 52 | 5.0 | 12.0 | 0.00 | 0.02 | 0.02 | 69 | 1012.8 |
| 20260507202048 | 67 | 5 | 4.0 | 13.0 | 0.00 | 0.02 | 0.02 | 70 | 1013.0 |
| 20260507201546 | 67 | 51 | 5.0 | 11.0 | 0.00 | 0.02 | 0.02 | 71 | 1013.1 |
| 20260507201045 | 67 | 62 | 3.0 | 9.0 | 0.00 | 0.02 | 0.02 | 72 | 1013.1 |
| 20260507200544 | 66 | 37 | 3.0 | 12.0 | 0.00 | 0.02 | 0.02 | 73 | 1013.3 |
| 20260507200043 | 66 | 40 | 6.0 | 12.0 | 0.00 | 0.02 | 0.02 | 72 | 1013.3 |
| 20260507195543 | 66 | 32 | 4.0 | 12.0 | 0.00 | 0.02 | 0.02 | 72 | 1013.6 |
| 20260507195045 | 66 | 63 | 5.0 | 12.0 | 0.00 | 0.02 | 0.02 | 73 | 1013.6 |
| 20260507194541 | 66 | 355 | 6.0 | 12.0 | 0.00 | 0.02 | 0.02 | 74 | 1013.5 |
| 20260507194041 | 66 | 51 | 5.0 | 12.0 | 0.00 | 0.02 | 0.02 | 75 | 1013.6 |
| 20260507193543 | 65 | 44 | 5.0 | 14.0 | 0.00 | 0.02 | 0.02 | 76 | 1013.4 |
| 20260507193041 | 65 | 40 | 4.0 | 11.0 | 0.01 | 0.02 | 0.02 | 78 | 1013.2 |
| 20260507192538 | 65 | 11 | 5.0 | 12.0 | 0.01 | 0.02 | 0.02 | 78 | 1013.1 |
| 20260507192038 | 64 | 82 | 7.0 | 12.0 | 0.02 | 0.02 | 0.02 | 78 | 1013.0 |
| 20260507191539 | 64 | 81 | 5.0 | 12.0 | 0.02 | 0.02 | 0.02 | 79 | 1013.0 |
| 20260507191038 | 64 | 76 | 3.0 | 11.0 | 0.02 | 0.02 | 0.02 | 79 | 1013.2 |
| 20260507190538 | 64 | 99 | 5.0 | 12.0 | 0.02 | 0.02 | 0.02 | 79 | 1013.4 |
| 20260507190038 | 63 | 126 | 4.0 | 12.0 | 0.02 | 0.02 | 0.02 | 80 | 1013.8 |
| 20260507185537 | 63 | 50 | 5.0 | 9.0 | 0.02 | 0.02 | 0.02 | 79 | 1013.9 |
| 20260507185038 | 63 | 30 | 4.0 | 10.0 | 0.02 | 0.02 | 0.02 | 80 | 1013.9 |
| 20260507184538 | 63 | 28 | 4.0 | 10.0 | 0.02 | 0.02 | 0.02 | 80 | 1013.9 |
| 20260507184039 | 63 | 68 | 5.0 | 9.0 | 0.02 | 0.02 | 0.02 | 79 | 1014.0 |
| 20260507183539 | 63 | 36 | 4.0 | 9.0 | 0.02 | 0.02 | 0.02 | 78 | 1014.4 |
| 20260507183045 | 63 | 76 | 3.0 | 10.0 | 0.01 | 0.01 | 0.01 | 77 | 1014.4 |
| 20260507182536 | 64 | 355 | 5.0 | 10.0 | 0.00 | 0.00 | 0.00 | 76 | 1014.6 |
| 20260507182036 | 64 | 33 | 3.0 | 9.0 | 0.00 | 0.00 | 0.00 | 74 | 1014.9 |
| 20260507181541 | 64 | 26 | 2.0 | 10.0 | 0.00 | 0.00 | 0.00 | 73 | 1015.2 |
| 20260507181036 | 64 | 5 | 4.0 | 11.0 | 0.00 | 0.00 | 0.00 | 72 | 1015.0 |
| 20260507180535 | 65 | 44 | 5.0 | 11.0 | 0.00 | 0.00 | 0.00 | 72 | 1015.1 |
| 20260507180045 | 65 | 320 | 4.0 | 12.0 | 0.00 | 0.00 | 0.00 | 72 | 1015.1 |
| 20260507175535 | 65 | 311 | 6.0 | 12.0 | 0.00 | 0.00 | 0.00 | 72 | 1014.7 |
| 20260507175035 | 64 | 19 | 6.0 | 13.0 | 0.00 | 0.00 | 0.00 | 73 | 1014.6 |
| 20260507174535 | 64 | 36 | 6.0 | 14.0 | 0.00 | 0.00 | 0.00 | 72 | 1014.7 |
| 20260507174036 | 65 | 17 | 7.0 | 14.0 | 0.00 | 0.00 | 0.00 | 72 | 1014.8 |
| 20260507173534 | 64 | 5 | 4.0 | 14.0 | 0.00 | 0.00 | 0.00 | 73 | 1014.8 |
| 20260507173037 | 64 | 38 | 8.0 | 14.0 | 0.00 | 0.00 | 0.00 | 72 | 1014.9 |
| 20260507172538 | 64 | 346 | 3.0 | 14.0 | 0.00 | 0.00 | 0.00 | 73 | 1015.0 |
| 20260507172035 | 64 | 44 | 5.0 | 14.0 | 0.00 | 0.00 | 0.00 | 73 | 1015.0 |
| 20260507171533 | 64 | 333 | 6.0 | 14.0 | 0.00 | 0.00 | 0.00 | 73 | 1014.9 |
| 20260507171033 | 63 | 40 | 7.0 | 15.0 | 0.00 | 0.00 | 0.00 | 74 | 1015.1 |
| 20260507170532 | 63 | 67 | 6.0 | 15.0 | 0.00 | 0.00 | 0.00 | 74 | 1015.1 |
| 20260507170031 | 63 | 67 | 5.0 | 11.0 | 0.00 | 0.00 | 0.00 | 74 | 1015.2 |
| 20260507165530 | 63 | 360 | 5.0 | 11.0 | 0.00 | 0.00 | 0.00 | 74 | 1015.3 |
| 20260507165030 | 63 | 340 | 4.0 | 12.0 | 0.00 | 0.00 | 0.00 | 75 | 1015.3 |
| 20260507164536 | 63 | 16 | 6.0 | 14.0 | 0.00 | 0.00 | 0.00 | 75 | 1015.4 |
| 20260507164029 | 63 | 5 | 6.0 | 14.0 | 0.00 | 0.00 | 0.00 | 75 | 1015.2 |
| 20260507163528 | 63 | 40 | 5.0 | 13.0 | 0.00 | 0.00 | 0.00 | 75 | 1015.2 |
| 20260507163032 | 63 | 76 | 4.0 | 13.0 | 0.00 | 0.00 | 0.00 | 75 | 1015.1 |
| 20260507162528 | 63 | 326 | 6.0 | 13.0 | 0.00 | 0.00 | 0.00 | 75 | 1015.1 |
| 20260507162028 | 63 | 355 | 4.0 | 12.0 | 0.00 | 0.00 | 0.00 | 76 | 1015.1 |
| 20260507161539 | 62 | 30 | 4.0 | 10.0 | 0.00 | 0.00 | 0.00 | 75 | 1015.1 |
| 20260507161027 | 62 | 16 | 4.0 | 15.0 | 0.00 | 0.00 | 0.00 | 76 | 1015.2 |
| 20260507160527 | 62 | 42 | 6.0 | 17.0 | 0.00 | 0.00 | 0.00 | 75 | 1015.1 |
| 20260507160041 | 62 | 338 | 8.0 | 17.0 | 0.00 | 0.00 | 0.00 | 75 | 1015.0 |
| 20260507155527 | 62 | 355 | 5.0 | 14.0 | 0.00 | 0.00 | 0.00 | 75 | 1015.0 |
| 20260507155026 | 62 | 55 | 6.0 | 17.0 | 0.00 | 0.00 | 0.00 | 75 | 1015.0 |
| 20260507154529 | 62 | 330 | 7.0 | 17.0 | 0.00 | 0.00 | 0.00 | 75 | 1015.1 |
| 20260507154025 | 62 | 10 | 4.0 | 15.0 | 0.00 | 0.00 | 0.00 | 76 | 1014.9 |
| 20260507153525 | 62 | 5 | 7.0 | 16.0 | 0.00 | 0.00 | 0.00 | 76 | 1014.7 |
| 20260507153024 | 62 | 327 | 7.0 | 18.0 | 0.00 | 0.00 | 0.00 | 76 | 1014.8 |
| 20260507152524 | 62 | 329 | 7.0 | 18.0 | 0.00 | 0.00 | 0.00 | 75 | 1014.9 |
| 20260507152024 | 62 | 346 | 8.0 | 15.0 | 0.00 | 0.00 | 0.00 | 75 | 1014.8 |
| 20260507151524 | 62 | 342 | 7.0 | 14.0 | 0.00 | 0.00 | 0.00 | 75 | 1014.7 |
| 20260507151025 | 62 | 38 | 8.0 | 17.0 | 0.00 | 0.00 | 0.00 | 75 | 1014.7 |
| 20260507150524 | 63 | 9 | 6.0 | 14.0 | 0.00 | 0.00 | 0.00 | 75 | 1014.7 |
| 20260507150028 | 63 | 335 | 5.0 | 17.0 | 0.00 | 0.00 | 0.00 | 75 | 1014.5 |
| 20260507145524 | 62 | 355 | 6.0 | 17.0 | 0.00 | 0.00 | 0.00 | 76 | 1014.5 |
| 20260507145025 | 62 | 346 | 9.0 | 17.0 | 0.00 | 0.00 | 0.00 | 76 | 1014.4 |
| 20260507144529 | 62 | 19 | 5.0 | 14.0 | 0.00 | 0.00 | 0.00 | 78 | 1014.2 |
| 20260507144021 | 61 | 342 | 5.0 | 14.0 | 0.00 | 0.00 | 0.00 | 78 | 1014.2 |
| 20260507143519 | 61 | 96 | 6.0 | 14.0 | 0.00 | 0.00 | 0.00 | 78 | 1014.5 |
| 20260507143019 | 61 | 338 | 4.0 | 14.0 | 0.00 | 0.00 | 0.00 | 78 | 1014.5 |
| 20260507142519 | 61 | 340 | 7.0 | 16.0 | 0.00 | 0.00 | 0.00 | 78 | 1014.6 |
| 20260507142018 | 61 | 315 | 7.0 | 16.0 | 0.00 | 0.00 | 0.00 | 78 | 1014.6 |
| 20260507141520 | 61 | 315 | 3.0 | 18.0 | 0.00 | 0.00 | 0.00 | 79 | 1014.6 |
| 20260507141020 | 61 | 327 | 5.0 | 21.0 | 0.00 | 0.00 | 0.00 | 79 | 1014.5 |
| 20260507140520 | 61 | 331 | 7.0 | 21.0 | 0.00 | 0.00 | 0.00 | 79 | 1014.3 |
| 20260507140015 | 60 | 42 | 7.0 | 18.0 | 0.00 | 0.00 | 0.00 | 80 | 1014.1 |
| 20260507135517 | 60 | 360 | 5.0 | 14.0 | 0.00 | 0.00 | 0.00 | 80 | 1014.2 |
| 20260507135014 | 60 | 333 | 6.0 | 15.0 | 0.00 | 0.00 | 0.00 | 80 | 1014.4 |
| 20260507134511 | 60 | 360 | 5.0 | 16.0 | 0.00 | 0.00 | 0.00 | 80 | 1014.6 |
| 20260507134011 | 60 | 38 | 5.0 | 16.0 | 0.00 | 0.00 | 0.00 | 80 | 1014.7 |
| 20260507133510 | 60 | 342 | 8.0 | 16.0 | 0.00 | 0.00 | 0.00 | 80 | 1014.5 |
| 20260507133010 | 60 | 340 | 7.0 | 16.0 | 0.00 | 0.00 | 0.00 | 80 | 1014.5 |
| 20260507132509 | 60 | 340 | 6.0 | 16.0 | 0.00 | 0.00 | 0.00 | 80 | 1014.5 |
| 20260507132008 | 60 | 15 | 4.0 | 13.0 | 0.00 | 0.00 | 0.00 | 80 | 1014.2 |
| 20260507131508 | 60 | 40 | 6.0 | 13.0 | 0.00 | 0.00 | 0.00 | 80 | 1014.1 |
| 20260507131007 | 60 | 37 | 5.0 | 15.0 | 0.00 | 0.00 | 0.00 | 80 | 1013.9 |
| 20260507130505 | 60 | 35 | 7.0 | 15.0 | 0.00 | 0.00 | 0.00 | 79 | 1014.0 |
| 20260507130015 | 61 | 15 | 6.0 | 14.0 | 0.00 | 0.00 | 0.00 | 79 | 1014.0 |
| 20260507125504 | 61 | 51 | 6.0 | 14.0 | 0.00 | 0.00 | 0.00 | 78 | 1014.2 |
| 20260507125004 | 61 | 349 | 4.0 | 11.0 | 0.00 | 0.00 | 0.00 | 78 | 1014.3 |
| 20260507124635 | 61 | 22 | 4.0 | 13.0 | 0.00 | 0.00 | 0.00 | 78 | 1014.3 |
| 20260507124059 | 61 | 14 | 5.0 | 13.0 | 0.00 | 0.00 | 0.00 | 77 | 1014.2 |
| 20260507123558 | 62 | 17 | 5.0 | 12.0 | 0.00 | 0.00 | 0.00 | 76 | 1014.3 |
| 20260507123057 | 62 | 55 | 3.0 | 16.0 | 0.00 | 0.00 | 0.00 | 76 | 1014.2 |
| 20260507122556 | 62 | 360 | 6.0 | 16.0 | 0.00 | 0.00 | 0.00 | 76 | 1014.2 |
| 20260507122055 | 62 | 18 | 3.0 | 9.0 | 0.00 | 0.00 | 0.00 | 75 | 1014.2 |
| 20260507121554 | 62 | 360 | 3.0 | 13.0 | 0.00 | 0.00 | 0.00 | 75 | 1013.9 |
| 20260507121053 | 62 | 28 | 4.0 | 13.0 | 0.00 | 0.00 | 0.00 | 75 | 1013.7 |
| 20260507120552 | 62 | 355 | 4.0 | 12.0 | 0.00 | 0.00 | 0.00 | 75 | 1013.5 |
| 20260507120052 | 62 | 51 | 5.0 | 12.0 | 0.00 | 0.00 | 0.00 | 75 | 1013.6 |
| 20260507115552 | 62 | 344 | 3.0 | 13.0 | 0.00 | 0.00 | 0.00 | 75 | 1013.7 |
| 20260507115050 | 63 | 321 | 3.0 | 13.0 | 0.00 | 0.00 | 0.00 | 75 | 1013.3 |
| 20260507114607 | 63 | 351 | 4.0 | 15.0 | 0.00 | 0.00 | 0.00 | 75 | 1013.1 |
| 20260507114047 | 63 | 5 | 6.0 | 15.0 | 0.00 | 0.00 | 0.00 | 75 | 1012.7 |
| 20260507113546 | 63 | 333 | 7.0 | 16.0 | 0.00 | 0.00 | 0.00 | 75 | 1012.5 |
| 20260507113047 | 63 | 355 | 5.0 | 16.0 | 0.00 | 0.00 | 0.00 | 74 | 1012.3 |
| 20260507112545 | 63 | 311 | 6.0 | 14.0 | 0.00 | 0.00 | 0.00 | 74 | 1012.1 |
| 20260507112047 | 63 | 61 | 5.0 | 13.0 | 0.00 | 0.00 | 0.00 | 74 | 1012.3 |
| 20260507111543 | 63 | 332 | 4.0 | 12.0 | 0.00 | 0.00 | 0.00 | 74 | 1012.3 |
| 20260507111042 | 63 | 26 | 5.0 | 12.0 | 0.00 | 0.00 | 0.00 | 74 | 1012.3 |
| 20260507110542 | 63 | 41 | 3.0 | 11.0 | 0.00 | 0.00 | 0.00 | 74 | 1012.2 |
| 20260507110045 | 63 | 11 | 5.0 | 13.0 | 0.00 | 0.00 | 0.00 | 74 | 1012.3 |
| 20260507105541 | 63 | 11 | 4.0 | 13.0 | 0.00 | 0.00 | 0.00 | 74 | 1012.3 |
| 20260507105041 | 63 | 24 | 6.0 | 13.0 | 0.00 | 0.00 | 0.00 | 74 | 1012.4 |
| 20260507104549 | 63 | 333 | 3.0 | 11.0 | 0.00 | 0.00 | 0.00 | 74 | 1012.5 |
| 20260507104040 | 63 | 19 | 4.0 | 12.0 | 0.00 | 0.00 | 0.00 | 74 | 1012.4 |
| 20260507103540 | 63 | 9 | 5.0 | 11.0 | 0.00 | 0.00 | 0.00 | 74 | 1012.3 |
| 20260507103038 | 63 | 26 | 4.0 | 10.0 | 0.00 | 0.00 | 0.00 | 74 | 1012.2 |
| 20260507102538 | 63 | 346 | 5.0 | 13.0 | 0.00 | 0.00 | 0.00 | 74 | 1012.2 |
| 20260507102038 | 63 | 331 | 2.0 | 13.0 | 0.00 | 0.00 | 0.00 | 74 | 1012.1 |
| 20260507101538 | 63 | 22 | 3.0 | 13.0 | 0.00 | 0.00 | 0.00 | 74 | 1012.1 |
| 20260507101037 | 63 | 331 | 7.0 | 13.0 | 0.00 | 0.00 | 0.00 | 74 | 1012.1 |
| 20260507100536 | 63 | 360 | 4.0 | 11.0 | 0.00 | 0.00 | 0.00 | 74 | 1011.9 |
| 20260507100038 | 63 | 65 | 4.0 | 15.0 | 0.00 | 0.00 | 0.00 | 74 | 1011.9 |
| 20260507095537 | 63 | 22 | 6.0 | 15.0 | 0.00 | 0.00 | 0.00 | 74 | 1012.0 |
| 20260507095035 | 63 | 23 | 3.0 | 13.0 | 0.00 | 0.00 | 0.00 | 74 | 1012.0 |
| 20260507094535 | 63 | 25 | 5.0 | 13.0 | 0.00 | 0.00 | 0.00 | 74 | 1011.9 |
| 20260507094036 | 63 | 355 | 4.0 | 12.0 | 0.00 | 0.00 | 0.00 | 74 | 1012.0 |
| 20260507093534 | 63 | 38 | 5.0 | 12.0 | 0.00 | 0.00 | 0.00 | 74 | 1012.0 |
| 20260507093038 | 63 | 342 | 3.0 | 14.0 | 0.00 | 0.00 | 0.00 | 74 | 1012.1 |
| 20260507092532 | 63 | 49 | 5.0 | 14.0 | 0.00 | 0.00 | 0.00 | 74 | 1012.1 |
| 20260507092031 | 63 | 360 | 5.0 | 12.0 | 0.00 | 0.00 | 0.00 | 74 | 1012.1 |
| 20260507091539 | 63 | 19 | 4.0 | 9.0 | 0.00 | 0.00 | 0.00 | 74 | 1012.3 |
| 20260507091031 | 63 | 333 | 3.0 | 9.0 | 0.00 | 0.00 | 0.00 | 74 | 1012.3 |
| 20260507090531 | 63 | 5 | 3.0 | 11.0 | 0.00 | 0.00 | 0.00 | 74 | 1012.4 |
| 20260507090029 | 63 | 21 | 6.0 | 11.0 | 0.00 | 0.00 | 0.00 | 74 | 1012.4 |
| 20260507085529 | 63 | 49 | 2.0 | 11.0 | 0.00 | 0.00 | 0.00 | 74 | 1012.2 |
| 20260507085029 | 63 | 40 | 4.0 | 11.0 | 0.00 | 0.00 | 0.00 | 74 | 1012.1 |
| 20260507084532 | 63 | 37 | 3.0 | 11.0 | 0.00 | 0.00 | 0.00 | 75 | 1012.0 |
| 20260507084027 | 63 | 45 | 5.0 | 11.0 | 0.00 | 0.00 | 0.00 | 74 | 1012.0 |
| 20260507083527 | 63 | 69 | 3.0 | 10.0 | 0.00 | 0.00 | 0.00 | 74 | 1012.0 |
| 20260507083027 | 63 | 44 | 3.0 | 9.0 | 0.00 | 0.00 | 0.00 | 75 | 1012.0 |
| 20260507082525 | 63 | 319 | 4.0 | 12.0 | 0.00 | 0.00 | 0.00 | 74 | 1012.0 |
| 20260507082028 | 63 | 55 | 5.0 | 12.0 | 0.00 | 0.00 | 0.00 | 74 | 1012.0 |
| 20260507081525 | 64 | 330 | 5.0 | 9.0 | 0.00 | 0.00 | 0.00 | 75 | 1011.8 |
| 20260507081025 | 64 | 355 | 2.0 | 10.0 | 0.00 | 0.00 | 0.00 | 75 | 1011.7 |
| 20260507080525 | 64 | 331 | 3.0 | 8.0 | 0.00 | 0.00 | 0.00 | 75 | 1011.7 |
| 20260507080024 | 64 | 36 | 2.0 | 9.0 | 0.00 | 0.00 | 0.00 | 75 | 1011.8 |
| 20260507075524 | 64 | 360 | 3.0 | 12.0 | 0.00 | 0.00 | 0.00 | 75 | 1011.8 |
| 20260507075024 | 64 | 350 | 4.0 | 12.0 | 0.00 | 0.00 | 0.00 | 75 | 1012.0 |
| 20260507074524 | 64 | 49 | 4.0 | 10.0 | 0.00 | 0.00 | 0.00 | 75 | 1012.1 |
| 20260507074022 | 64 | 56 | 2.0 | 11.0 | 0.00 | 0.00 | 0.00 | 75 | 1012.2 |
| 20260507073522 | 64 | 355 | 4.0 | 11.0 | 0.00 | 0.00 | 0.00 | 75 | 1012.3 |
| 20260507073022 | 64 | 51 | 3.0 | 9.0 | 0.00 | 0.00 | 0.00 | 75 | 1012.3 |
| 20260507072522 | 64 | 346 | 4.0 | 9.0 | 0.00 | 0.00 | 0.00 | 75 | 1012.4 |
| 20260507072021 | 64 | 338 | 2.0 | 10.0 | 0.00 | 0.00 | 0.00 | 75 | 1012.3 |
| 20260507071521 | 64 | 334 | 4.0 | 10.0 | 0.00 | 0.00 | 0.00 | 75 | 1012.1 |
| 20260507071021 | 64 | 9 | 3.0 | 9.0 | 0.00 | 0.00 | 0.00 | 75 | 1012.2 |
| 20260507070522 | 64 | 17 | 4.0 | 9.0 | 0.00 | 0.00 | 0.00 | 75 | 1012.2 |
| 20260507070020 | 64 | 336 | 4.0 | 10.0 | 0.00 | 0.00 | 0.00 | 75 | 1012.1 |
| 20260507065521 | 64 | 33 | 4.0 | 10.0 | 0.00 | 0.00 | 0.00 | 75 | 1012.2 |
| 20260507065020 | 64 | 54 | 4.0 | 10.0 | 0.00 | 0.00 | 0.00 | 75 | 1012.2 |
| 20260507064519 | 64 | 88 | 4.0 | 10.0 | 0.00 | 0.00 | 0.00 | 75 | 1012.3 |
| 20260507064019 | 64 | 14 | 1.0 | 9.0 | 0.00 | 0.00 | 0.00 | 75 | 1012.3 |
| 20260507063519 | 64 | 54 | 2.0 | 9.0 | 0.00 | 0.00 | 0.00 | 75 | 1012.2 |
| 20260507063031 | 64 | 35 | 4.0 | 9.0 | 0.00 | 0.00 | 0.00 | 75 | 1012.2 |
| 20260507062518 | 64 | 32 | 4.0 | 11.0 | 0.00 | 0.00 | 0.00 | 75 | 1012.3 |
| 20260507062017 | 64 | 15 | 4.0 | 13.0 | 0.00 | 0.00 | 0.00 | 75 | 1011.9 |
| 20260507061518 | 64 | 21 | 5.0 | 15.0 | 0.00 | 0.00 | 0.00 | 75 | 1011.9 |
| 20260507061016 | 64 | 47 | 6.0 | 15.0 | 0.00 | 0.00 | 0.00 | 75 | 1011.9 |
| 20260507060516 | 64 | 47 | 5.0 | 14.0 | 0.00 | 0.00 | 0.00 | 75 | 1011.9 |
| 20260507060032 | 64 | 66 | 3.0 | 11.0 | 0.00 | 0.00 | 0.00 | 75 | 1012.0 |
| 20260507055515 | 64 | 42 | 4.0 | 11.0 | 0.00 | 0.00 | 0.00 | 75 | 1012.1 |
| 20260507055016 | 64 | 49 | 5.0 | 12.0 | 0.00 | 0.00 | 0.00 | 75 | 1012.1 |
| 20260507054514 | 64 | 17 | 6.0 | 12.0 | 0.00 | 0.00 | 0.00 | 75 | 1011.9 |
| 20260507054012 | 64 | 328 | 4.0 | 13.0 | 0.00 | 0.00 | 0.00 | 75 | 1011.7 |
| 20260507053512 | 64 | 63 | 5.0 | 13.0 | 0.00 | 0.00 | 0.00 | 75 | 1011.2 |
| 20260507053011 | 64 | 84 | 3.0 | 10.0 | 0.00 | 0.00 | 0.00 | 75 | 1011.3 |
| 20260507052511 | 64 | 51 | 3.0 | 12.0 | 0.00 | 0.00 | 0.00 | 75 | 1011.4 |
| 20260507052010 | 64 | 72 | 5.0 | 12.0 | 0.00 | 0.00 | 0.00 | 75 | 1011.4 |
| 20260507051510 | 64 | 40 | 3.0 | 10.0 | 0.00 | 0.00 | 0.00 | 75 | 1011.4 |
| 20260507051008 | 64 | 73 | 5.0 | 10.0 | 0.00 | 0.00 | 0.00 | 75 | 1011.2 |
| 20260507050508 | 65 | 42 | 3.0 | 10.0 | 0.00 | 0.00 | 0.00 | 75 | 1011.4 |
| 20260507050007 | 65 | 42 | 4.0 | 10.0 | 0.00 | 0.00 | 0.00 | 75 | 1011.4 |
| 20260507045507 | 65 | 53 | 4.0 | 10.0 | 0.00 | 0.00 | 0.00 | 75 | 1011.5 |
| 20260507045007 | 65 | 5 | 5.0 | 13.0 | 0.00 | 0.00 | 0.00 | 75 | 1011.5 |
| 20260507044505 | 65 | 338 | 4.0 | 13.0 | 0.00 | 0.00 | 0.00 | 75 | 1011.7 |
| 20260507044004 | 65 | 48 | 4.0 | 12.0 | 0.00 | 0.00 | 0.00 | 75 | 1011.6 |
| 20260507043505 | 65 | 45 | 6.0 | 12.0 | 0.00 | 0.00 | 0.00 | 75 | 1011.6 |
| 20260507043003 | 65 | 41 | 4.0 | 12.0 | 0.00 | 0.00 | 0.00 | 75 | 1011.7 |
| 20260507042503 | 65 | 23 | 4.0 | 11.0 | 0.00 | 0.00 | 0.00 | 75 | 1011.4 |
| 20260507042002 | 65 | 12 | 3.0 | 11.0 | 0.00 | 0.00 | 0.00 | 75 | 1011.3 |
| 20260507041501 | 65 | 355 | 4.0 | 12.0 | 0.00 | 0.00 | 0.00 | 75 | 1011.2 |
| 20260507041100 | 65 | 50 | 5.0 | 12.0 | 0.00 | 0.00 | 0.00 | 75 | 1011.3 |
| 20260507040559 | 65 | 52 | 3.0 | 12.0 | 0.00 | 0.00 | 0.00 | 75 | 1011.2 |
| 20260507040110 | 65 | 5 | 3.0 | 12.0 | 0.00 | 0.00 | 0.00 | 75 | 1010.8 |
| 20260507035557 | 65 | 49 | 5.0 | 13.0 | 0.00 | 0.00 | 0.00 | 75 | 1010.6 |
| 20260507035100 | 65 | 360 | 4.0 | 14.0 | 0.00 | 0.00 | 0.00 | 75 | 1010.7 |
| 20260507034604 | 65 | 53 | 4.0 | 14.0 | 0.00 | 0.00 | 0.00 | 75 | 1010.5 |
| 20260507034057 | 65 | 46 | 5.0 | 12.0 | 0.00 | 0.00 | 0.00 | 75 | 1010.5 |
| 20260507033555 | 65 | 42 | 3.0 | 13.0 | 0.00 | 0.00 | 0.00 | 75 | 1010.7 |
| 20260507033103 | 65 | 31 | 5.0 | 13.0 | 0.00 | 0.00 | 0.00 | 75 | 1010.7 |
| 20260507032555 | 65 | 32 | 5.0 | 12.0 | 0.00 | 0.00 | 0.00 | 75 | 1010.8 |
| 20260507032054 | 65 | 59 | 4.0 | 14.0 | 0.00 | 0.00 | 0.00 | 75 | 1010.7 |
| 20260507031604 | 65 | 24 | 6.0 | 14.0 | 0.00 | 0.00 | 0.00 | 75 | 1010.6 |
| 20260507031056 | 65 | 313 | 6.0 | 12.0 | 0.00 | 0.00 | 0.00 | 75 | 1010.6 |
| 20260507030553 | 65 | 341 | 4.0 | 11.0 | 0.00 | 0.00 | 0.00 | 75 | 1010.5 |
| 20260507030154 | 65 | 20 | 4.0 | 10.0 | 0.00 | 0.00 | 0.00 | 75 | 1010.5 |
| 20260507025553 | 65 | 345 | 4.0 | 11.0 | 0.00 | 0.00 | 0.00 | 75 | 1010.6 |
| 20260507025052 | 65 | 360 | 4.0 | 13.0 | 0.00 | 0.00 | 0.00 | 75 | 1010.4 |
| 20260507024552 | 65 | 355 | 4.0 | 13.0 | 0.00 | 0.00 | 0.00 | 74 | 1010.3 |
| 20260507024050 | 65 | 325 | 4.0 | 11.0 | 0.00 | 0.00 | 0.00 | 74 | 1010.3 |
| 20260507023550 | 65 | 11 | 4.0 | 15.0 | 0.00 | 0.00 | 0.00 | 74 | 1010.2 |
| 20260507023051 | 65 | 355 | 4.0 | 15.0 | 0.00 | 0.00 | 0.00 | 74 | 1010.5 |
| 20260507022549 | 65 | 345 | 5.0 | 12.0 | 0.00 | 0.00 | 0.00 | 74 | 1010.2 |
| 20260507022048 | 65 | 19 | 6.0 | 14.0 | 0.00 | 0.00 | 0.00 | 74 | 1010.0 |
| 20260507021548 | 66 | 23 | 6.0 | 16.0 | 0.00 | 0.00 | 0.00 | 74 | 1009.8 |
| 20260507021047 | 66 | 49 | 4.0 | 16.0 | 0.00 | 0.00 | 0.00 | 74 | 1009.8 |
| 20260507020546 | 66 | 30 | 5.0 | 16.0 | 0.00 | 0.00 | 0.00 | 74 | 1009.8 |
| 20260507020046 | 66 | 29 | 5.0 | 12.0 | 0.00 | 0.00 | 0.00 | 74 | 1009.7 |
| 20260507015544 | 66 | 344 | 6.0 | 14.0 | 0.00 | 0.00 | 0.00 | 73 | 1009.8 |
| 20260507015045 | 66 | 5 | 5.0 | 16.0 | 0.00 | 0.00 | 0.00 | 73 | 1009.3 |
| 20260507014550 | 66 | 65 | 9.0 | 16.0 | 0.00 | 0.00 | 0.00 | 73 | 1009.3 |
| 20260507014044 | 66 | 57 | 5.0 | 13.0 | 0.00 | 0.00 | 0.00 | 73 | 1009.3 |
| 20260507013542 | 67 | 326 | 7.0 | 13.0 | 0.00 | 0.00 | 0.00 | 73 | 1009.3 |
| 20260507013049 | 67 | 337 | 5.0 | 13.0 | 0.00 | 0.00 | 0.00 | 73 | 1009.1 |
| 20260507012539 | 67 | 5 | 4.0 | 15.0 | 0.00 | 0.00 | 0.00 | 73 | 1009.1 |
| 20260507012039 | 67 | 342 | 3.0 | 13.0 | 0.00 | 0.00 | 0.00 | 72 | 1009.1 |
| 20260507011537 | 67 | 60 | 6.0 | 13.0 | 0.00 | 0.00 | 0.00 | 72 | 1009.1 |
| 20260507011036 | 67 | 290 | 5.0 | 11.0 | 0.00 | 0.00 | 0.00 | 72 | 1008.9 |
| 20260507010535 | 67 | 327 | 2.0 | 12.0 | 0.00 | 0.00 | 0.00 | 72 | 1008.8 |
| 20260507010045 | 68 | 346 | 5.0 | 12.0 | 0.00 | 0.00 | 0.00 | 72 | 1008.9 |
| 20260507005535 | 68 | 335 | 5.0 | 15.0 | 0.00 | 0.00 | 0.00 | 71 | 1008.6 |
| 20260507005031 | 68 | 5 | 7.0 | 15.0 | 0.00 | 0.00 | 0.00 | 71 | 1008.4 |
| 20260507004530 | 69 | 350 | 5.0 | 13.0 | 0.00 | 0.00 | 0.00 | 71 | 1008.4 |
| 20260507004029 | 69 | 306 | 5.0 | 12.0 | 0.00 | 0.00 | 0.00 | 70 | 1008.2 |
| 20260507003527 | 70 | 40 | 5.0 | 12.0 | 0.00 | 0.00 | 0.00 | 70 | 1008.3 |
| 20260507003026 | 70 | 24 | 4.0 | 13.0 | 0.00 | 0.00 | 0.00 | 69 | 1008.3 |
| 20260507002527 | 71 | 341 | 5.0 | 13.0 | 0.00 | 0.00 | 0.00 | 69 | 1008.3 |
| 20260507002024 | 71 | 319 | 5.0 | 13.0 | 0.00 | 0.00 | 0.00 | 68 | 1008.2 |
| 20260507001528 | 72 | 321 | 5.0 | 13.0 | 0.00 | 0.00 | 0.00 | 68 | 1008.2 |
| 20260507001023 | 72 | 319 | 5.0 | 13.0 | 0.00 | 0.00 | 0.00 | 68 | 1008.0 |
| 20260507000520 | 73 | 360 | 5.0 | 11.0 | 0.00 | 0.00 | 0.00 | 68 | 1007.9 |
| 20260507000019 | 73 | 75 | 4.0 | 11.0 | 0.00 | 0.00 | 0.00 | 68 | 1007.5 |
| 20260506235518 | 73 | 346 | 5.0 | 12.0 | 0.00 | 0.00 | 0.00 | 67 | 1007.6 |
| 20260506235016 | 74 | 145 | 5.0 | 12.0 | 0.00 | 0.00 | 0.00 | 68 | 1007.5 |
| 20260506234522 | 74 | 333 | 4.0 | 15.0 | 0.00 | 0.00 | 0.00 | 67 | 1007.5 |
| 20260506234015 | 74 | 343 | 5.0 | 15.0 | 0.00 | 0.00 | 0.00 | 67 | 1007.5 |
| 20260506233514 | 75 | 330 | 5.0 | 14.0 | 0.00 | 0.00 | 0.00 | 66 | 1007.3 |
| 20260506233014 | 75 | 69 | 5.0 | 14.0 | 0.00 | 0.00 | 0.00 | 66 | 1007.3 |
| 20260506232513 | 76 | 355 | 5.0 | 22.0 | 0.00 | 0.00 | 0.00 | 66 | 1007.2 |
| 20260506232013 | 76 | 331 | 8.0 | 22.0 | 0.00 | 0.00 | 0.00 | 66 | 1007.2 |
| 20260506231512 | 76 | 339 | 5.0 | 14.0 | 0.00 | 0.00 | 0.00 | 66 | 1007.1 |
| 20260506231013 | 77 | 338 | 6.0 | 14.0 | 0.00 | 0.00 | 0.00 | 65 | 1007.0 |
| 20260506230511 | 77 | 59 | 6.0 | 14.0 | 0.00 | 0.00 | 0.00 | 66 | 1007.0 |
| 20260506230011 | 78 | 346 | 6.0 | 18.0 | 0.00 | 0.00 | 0.00 | 66 | 1007.0 |
| 20260506225511 | 78 | 355 | 7.0 | 18.0 | 0.00 | 0.00 | 0.00 | 66 | 1006.9 |
| 20260506225011 | 79 | 14 | 6.0 | 15.0 | 0.00 | 0.00 | 0.00 | 65 | 1006.8 |
| 20260506224511 | 79 | 331 | 4.0 | 15.0 | 0.00 | 0.00 | 0.00 | 65 | 1006.5 |
| 20260506224009 | 80 | 338 | 5.0 | 14.0 | 0.00 | 0.00 | 0.00 | 65 | 1006.5 |
| 20260506223509 | 80 | 328 | 4.0 | 16.0 | 0.00 | 0.00 | 0.00 | 66 | 1006.3 |
| 20260506223010 | 80 | 355 | 7.0 | 16.0 | 0.00 | 0.00 | 0.00 | 66 | 1006.2 |
| 20260506222509 | 80 | 55 | 4.0 | 15.0 | 0.00 | 0.00 | 0.00 | 67 | 1006.1 |
| 20260506222011 | 80 | 22 | 7.0 | 15.0 | 0.00 | 0.00 | 0.00 | 67 | 1006.1 |